DAL299 LIRF-KATL

Flight info

Callsign DAL299
Flight time N/A
Altitude 36000
Route PODOX9E PODOX DCT TOBGA DCT DOBIM DCT PIGOS DCT BODRU DCT KOTIT DCT ETREK DCT NOQAS DCT LERGA DCT VALKU/N0491F370 DCT PECNO DCT LMG/N0491F380 DCT MANAK UT183 BAGAD DCT LARLA DCT RATKA/M085F380 DCT SOMAX/M085F390 DCT 5030N02000W 5030N03000W 50N040W 4730N05000W DCT OMSAT/N0477F400 N226B TUSKY DCT BOS DCT BAF Q448 PTW J48 MOL DCT FLASK OZZZI2
Aircraft A359/H-SDE2E3GHIJ3J4J5LM1ORWXY/LB1D1

Departure

Time 2026-05-06 04:25
Airport Rome–Fiumicino Leonardo da Vinci International Airport (LIRF)

Arrival

Time N/A
Airport Hartsfield Jackson Atlanta International Airport (KATL)
Time Latitude Longitude Altitude Speed Heading
2026-05-06 04:05 41.79605 12.24342 20 ft 0 kts 276°
2026-05-06 04:14 41.79603 12.24359 24 ft 3 kts 284°
2026-05-06 04:14 41.79599 12.24377 20 ft 0 kts 312°
2026-05-06 04:18 41.79601 12.24376 20 ft 1 kts 321°
2026-05-06 04:18 41.79643 12.24391 23 ft 14 kts 15°
2026-05-06 04:18 41.79766 12.24372 22 ft 23 kts 342°
2026-05-06 04:19 41.79915 12.24391 24 ft 22 kts
2026-05-06 04:19 41.80012 12.24520 22 ft 21 kts 71°
2026-05-06 04:19 41.80060 12.24703 21 ft 17 kts 67°
2026-05-06 04:19 41.80149 12.24790 24 ft 16 kts 30°
2026-05-06 04:20 41.80202 12.24912 22 ft 16 kts 74°
2026-05-06 04:20 41.80212 12.25061 23 ft 16 kts 88°
2026-05-06 04:20 41.80243 12.25204 22 ft 16 kts 70°
2026-05-06 04:20 41.80281 12.25345 23 ft 16 kts 70°
2026-05-06 04:21 41.80321 12.25493 26 ft 18 kts 70°
2026-05-06 04:21 41.80365 12.25651 24 ft 19 kts 69°
2026-05-06 04:21 41.80412 12.25817 24 ft 20 kts 70°
2026-05-06 04:21 41.80460 12.25991 23 ft 20 kts 70°
2026-05-06 04:22 41.80509 12.26169 25 ft 20 kts 70°
2026-05-06 04:22 41.80558 12.26348 23 ft 21 kts 70°
2026-05-06 04:22 41.80609 12.26532 24 ft 22 kts 70°
2026-05-06 04:23 41.80718 12.26926 21 ft 24 kts 70°
2026-05-06 04:23 41.80776 12.27113 23 ft 17 kts 49°
2026-05-06 04:23 41.80881 12.27110 21 ft 17 kts 341°
2026-05-06 04:23 41.80975 12.27035 23 ft 15 kts 286°
2026-05-06 04:24 41.80948 12.26885 21 ft 24 kts 251°
2026-05-06 04:24 41.80815 12.26407 26 ft 92 kts 251°
2026-05-06 04:24 41.80514 12.25319 26 ft 159 kts 250°
2026-05-06 04:24 41.80080 12.23747 401 ft 186 kts 248°
2026-05-06 04:25 41.79645 12.22116 1307 ft 189 kts 246°
2026-05-06 04:25 41.79323 12.20291 1943 ft 213 kts 259°
2026-05-06 04:25 41.79227 12.18229 2249 ft 233 kts 264°
2026-05-06 04:25 41.79185 12.15963 2574 ft 251 kts 265°
2026-05-06 04:26 41.79144 12.13599 3245 ft 255 kts 265°
2026-05-06 04:26 41.79097 12.11218 3964 ft 256 kts 264°
2026-05-06 04:26 41.79047 12.08832 4696 ft 257 kts 265°
2026-05-06 04:26 41.79046 12.06473 5415 ft 257 kts 266°
2026-05-06 04:27 41.79056 12.04075 6134 ft 258 kts 267°
2026-05-06 04:27 41.79064 12.01672 6830 ft 259 kts 266°
2026-05-06 04:27 41.79062 11.99244 7467 ft 263 kts 266°
2026-05-06 04:27 41.79058 11.96775 8126 ft 267 kts 266°
2026-05-06 04:28 41.79052 11.94276 8808 ft 270 kts 266°
2026-05-06 04:28 41.79044 11.91736 9467 ft 274 kts 266°
2026-05-06 04:28 41.79036 11.89164 10113 ft 279 kts 267°
2026-05-06 04:28 41.79028 11.86533 10456 ft 294 kts 266°
2026-05-06 04:29 41.79015 11.83716 10702 ft 312 kts 267°
2026-05-06 04:29 41.79009 11.80727 10975 ft 328 kts 267°
2026-05-06 04:29 41.79001 11.77606 11321 ft 341 kts 267°
2026-05-06 04:29 41.78986 11.74393 11818 ft 348 kts 267°
2026-05-06 04:30 41.78973 11.71145 12519 ft 350 kts 268°
2026-05-06 04:30 41.78956 11.67864 13202 ft 353 kts 268°